Regional Weather Roundup
Issued by NWS Little Rock, AR

Home | Current Version | Previous Version | Graphics & Text | Print | Product List | Glossary On
Versions: 1 2 3 4 5 6 7 8 9 10 11 12 13 14 15 16 17 18 19 20 21 22 23 24 25 26 27 28 29 30 31 32 33 34 35 36 37 38 39 40 41 42 43 44 45 46 47 48 49 50
363
ASUS44 KLZK 141105
RWRLZK

WEATHER ROUNDUP FOR ARKANSAS
NATIONAL WEATHER SERVICE LITTLE ROCK AR
500 AM CST SUN FEB 14 2016

NOTE: "FAIR" INDICATES FEW OR NO CLOUDS BELOW 12,000 FEET WITH NO
SIGNIFICANT WEATHER AND/OR OBSTRUCTIONS TO VISIBILITY.

ARZ001-003-010-029-141200-
NORTHWEST ARKANSAS

CITY           SKY/WX    TMP DP  RH WIND       PRES   REMARKS
FAYETTEVILLE   CLOUDY    38  23  55 SE7       30.00F
FORT SMITH     CLOUDY    34  13  41 E17       30.07F WCI  23
HARRISON       CLOUDY    29  10  45 SE13G23   30.07F WCI  19
BENTONVILLE    CLOUDY    37  18  44 SE12      30.00S
ROGERS         CLOUDY    38  19  46 SE12      30.00S
SILOAM SPGS    CLOUDY    37  16  41 SE9       29.99R
HIGHFILL       CLOUDY    39  22  50 S14       29.99S
$$

ARZ004-005-016-141200-
NORTH CENTRAL ARKANSAS

CITY           SKY/WX    TMP DP  RH WIND       PRES   REMARKS
BATESVILLE     CLOUDY    28  12  50 E9        30.21F WCI  20
FLIPPIN        CLOUDY    28   7  40 E7        30.13F WCI  21
MTN HOME       CLOUDY    26   9  48 SE8G18    30.13F WCI  18
$$

ARZ040-041-141200-
WEST CENTRAL ARKANSAS

CITY           SKY/WX    TMP DP  RH WIND       PRES   REMARKS
MENA           CLOUDY    45  27  49 CALM      30.08R
MOUNT IDA      CLOUDY    37  15  40 SE6       30.09F
$$

ARZ009-017-025-026-028-141200-
NORTHEAST ARKANSAS

CITY           SKY/WX    TMP DP  RH WIND       PRES   REMARKS
JONESBORO      CLOUDY    29  13  51 E10       30.25F WCI  20
NEWPORT        CLOUDY    31  12  45 E10       30.25F WCI  22
WALNUT RIDGE   CLOUDY    30  10  43 SE13      30.26F WCI  20
BLYTHEVILLE    CLOUDY    32  11  41 E13       30.29R WCI  22
$$

ARZ022-023-033-042-044-141200-
CENTRAL ARKANSAS

CITY           SKY/WX    TMP DP  RH WIND       PRES   REMARKS
LITTLE ROCK    CLOUDY    34  17  50 E9        30.18F WCI  27
N LITTLE ROCK    N/A     32  20  61 E10       30.18F WCI  23
JACKSONVILLE   CLOUDY    33  15  47 E8        30.16F WCI  26
SEARCY         CLOUDY    32  18  55 E6        30.22F WCI  26
HOT SPRINGS    CLOUDY    36  15  42 SE10      30.14F
RUSSELLVILLE   CLOUDY    31  13  47 E7        30.15F WCI  24
CLINTON        CLOUDY    32  14  47 CALM      30.19S
$$

ARZ036-141200-
EAST ARKANSAS

CITY           SKY/WX    TMP DP  RH WIND       PRES   REMARKS
WEST MEMPHIS   CLOUDY    33  11  39 SE13      30.23F WCI  24
$$

ARZ050-053-066-070-073-141200-
SOUTHWEST ARKANSAS

CITY           SKY/WX    TMP DP  RH WIND       PRES   REMARKS
ARKADELPHIA    PTSUNNY   38  18  44 E3        30.16F
CAMDEN         CLOUDY    41  16  36 E3        30.16F
TEXARKANA      CLOUDY    42  21  43 VRB6      30.11F
EL DORADO      CLOUDY    43  21  41 NE7       30.15F
DE QUEEN       CLOUDY    41  21  44 E10       30.09F
$$

ARZ056-057-069-141200-
SOUTHEAST ARKANSAS

CITY           SKY/WX    TMP DP  RH WIND       PRES   REMARKS
PINE BLUFF     CLOUDY    37  21  52 E8        30.19F
STUTTGART      CLOUDY    36  16  44 SE13      30.17F
MONTICELLO     CLOUDY    41  21  44 E6        30.19S

$$






USA.gov is the U.S. government's official web portal to all federal, state and local government web resources and services.